Wind_Speed
13 12 12 13 14 14 14 13 13 13 12 11 10 10 9 7 6 5 5 4 4 3 2 2 2 2 2 2 3 3 4 4 4 4 4 4 4 4 3 2 1 1 0 0
15 14 14 15 15 15 15 14 15 14 13 13 13 12 11 9 8 8 7 7 6 5 4 3 2 2 1 0 1 2 3 3 3 3 2 3 3 2 2 1 0 0 1 1
15 15 16 16 16 16 16 16 16 15 15 14 14 13 12 11 9 9 9 8 8 7 6 5 4 3 3 2 1 1 1 2 2 2 1 1 1 1 0 0 1 1 1 2
16 17 17 17 17 17 17 18 18 16 16 15 14 14 13 13 12 10 10 10 9 9 9 8 6 5 5 4 4 3 2 2 2 2 1 2 2 2 2 2 2 2 3 4
17 17 18 18 17 17 18 18 18 18 18 18 17 16 15 14 14 13 12 12 12 11 11 11 10 9 8 7 6 6 5 4 4 4 4 4 4 4 4 4 4 4 4 5
18 18 18 18 18 19 19 18 18 18 18 18 17 17 17 16 15 15 15 14 14 14 14 13 13 12 10 10 9 8 8 7 7 7 6 6 7 7 7 7 7 7 7 7
19 19 19 19 19 19 19 18 17 16 17 17 19 18 17 17 17 17 16 16 16 16 16 15 15 14 12 12 11 10 10 10 9 9 9 9 9 10 10 9 10 10 10 10
19 19 20 19 19 19 20 19 18 17 17 17 19 19 18 17 17 18 18 17 17 17 17 17 16 16 15 15 14 14 12 12 11 11 11 11 12 12 13 13 13 13 13 13
20 20 20 20 19 20 20 20 20 19 19 18 19 19 19 17 17 18 18 18 18 19 19 19 19 18 18 18 17 16 15 15 14 14 14 14 15 15 15 15 15 15 15 15
21 22 22 22 21 21 21 21 20 19 19 19 20 19 19 17 18 18 19 20 20 20 20 20 20 20 20 20 20 19 19 18 18 17 16 17 17 17 17 17 17 17 16 16
22 22 23 24 23 22 22 22 22 21 21 20 19 20 20 20 19 19 20 20 20 20 21 21 21 22 22 22 22 22 22 21 20 20 19 19 19 19 19 19 19 19 18 18
23 23 23 24 24 25 25 24 23 23 23 23 22 22 21 21 21 21 21 21 21 21 21 22 23 24 23 23 23 24 24 24 23 23 23 23 23 22 22 22 22 21 20 19
24 25 24 23 24 25 26 26 25 25 25 25 24 23 23 23 22 22 22 22 22 22 22 22 23 25 25 25 26 26 26 26 26 26 26 25 25 24 24 24 25 24 23 22
25 26 26 24 23 25 26 27 27 27 27 27 26 25 26 27 25 24 24 24 24 24 24 24 25 25 27 28 28 28 29 29 29 29 29 29 28 27 27 27 27 26 25 25
27 28 28 28 28 29 29 28 29 29 29 29 28 28 28 28 27 25 25 25 25 25 26 26 26 27 28 29 30 30 30 31 31 31 31 31 31 30 29 29 29 29 28 27
29 29 29 29 30 31 31 31 31 31 30 30 30 29 28 29 29 27 27 26 26 27 27 27 28 28 29 30 30 31 31 31 31 32 32 32 32 31 31 31 31 30 29 28
30 30 30 30 30 31 32 31 32 33 32 32 32 32 31 31 31 30 29 29 28 29 30 29 29 30 30 31 32 32 32 33 33 34 33 33 33 34 33 32 31 30 30 30
32 32 32 32 33 33 32 32 32 33 33 33 33 33 34 33 32 32 32 31 31 31 31 31 30 30 31 32 32 33 33 34 35 36 35 34 34 34 34 33 33 32 32 32
34 34 34 34 35 35 34 34 33 34 35 35 35 34 34 34 33 34 33 33 32 33 32 32 32 32 32 32 33 33 33 34 36 36 35 34 34 35 35 35 34 34 34 34
35 36 36 37 36 36 35 36 35 35 37 36 35 35 35 35 35 36 34 33 33 34 34 33 33 33 33 33 34 34 33 34 34 35 35 35 35 35 36 35 35 36 35 34
35 36 37 37 37 37 37 36 36 37 38 36 36 36 36 36 37 36 34 33 34 34 33 33 33 33 33 34 34 34 34 34 33 33 35 36 37 37 36 36 37 36 35 35
35 35 36 36 37 38 38 38 38 39 39 37 37 37 37 37 37 36 35 35 34 34 34 33 34 34 34 35 35 35 35 35 34 35 35 36 38 39 38 37 37 37 37 37
35 35 36 37 38 39 38 38 38 38 39 38 38 37 37 37 37 36 35 35 35 34 35 35 35 36 36 36 36 36 36 36 36 37 37 37 38 39 38 38 38 39 39 39
36 36 36 36 36 37 38 38 37 37 38 38 38 37 37 37 36 36 35 35 35 36 35 35 35 35 36 36 37 37 37 37 37 37 37 37 38 38 38 38 39 39 39 40
36 36 36 36 37 37 37 37 37 37 37 37 37 37 36 36 36 36 36 36 37 37 37 36 36 36 37 37 37 36 37 36 37 37 37 37 37 37 38 38 39 40 40 40
35 36 36 36 37 37 36 36 37 36 36 36 36 36 36 36 36 36 36 37 38 38 38 38 38 38 37 36 37 37 36 36 37 37 38 38 38 38 39 39 39 40 40 40
Wind_Direction
238 237 236 235 233 232 232 234 242 245 248 246 244 242 247 251 254 267 278 268 271 291 326 347 351 6 28 56 69 82 99 98 104 114 121 124 124 122 123 125 123 102 85 210
241 239 238 237 238 240 240 242 248 252 253 252 252 250 248 253 255 258 262 266 264 262 271 291 300 315 320 270 102 95 116 117 114 114 119 125 127 126 122 109 93 5 337 317
239 239 240 241 241 242 244 246 248 250 254 255 255 256 250 252 256 255 256 260 262 261 261 269 277 279 269 247 208 169 169 156 140 131 119 139 152 158 157 312 294 288 299 315
240 241 242 241 242 243 245 248 248 250 252 256 259 256 253 252 253 253 254 256 257 262 260 261 266 269 265 257 245 240 231 225 216 219 241 264 263 269 284 294 294 296 296 298
242 241 242 242 242 244 244 249 251 251 253 256 259 258 252 254 252 253 255 253 253 259 260 259 260 262 261 259 254 249 243 245 245 246 255 267 273 278 286 287 283 285 290 296
242 244 243 243 244 246 247 251 253 254 254 256 255 258 255 253 252 253 254 254 253 257 256 256 258 258 257 257 255 253 253 255 254 255 262 269 270 274 280 284 283 285 289 294
247 247 246 244 245 248 248 249 253 257 256 258 257 257 255 252 251 251 254 256 254 253 253 254 257 257 257 259 257 255 258 257 256 260 264 268 271 274 278 281 282 283 286 290
249 249 248 246 246 248 248 244 242 247 253 260 262 259 257 251 248 250 253 257 255 253 253 254 255 257 259 261 258 257 258 259 262 263 267 268 272 276 279 280 280 282 283 284
246 247 248 247 247 247 247 245 245 250 251 255 258 261 260 251 246 249 252 255 258 257 255 255 254 256 260 261 258 257 259 261 264 265 267 270 272 275 277 277 278 279 279 281
246 248 248 249 249 249 248 247 247 246 251 257 261 263 260 256 252 251 254 257 258 257 256 254 255 257 259 260 258 258 259 259 262 265 268 269 271 274 275 275 275 276 277 278
248 250 251 251 249 250 249 248 249 249 249 254 260 262 261 259 257 256 258 259 258 256 254 252 254 256 257 259 259 260 261 261 261 263 265 267 269 273 274 273 274 275 274 274
249 251 252 253 252 248 249 250 250 251 254 254 257 262 263 259 257 258 259 259 260 258 255 254 254 254 256 257 258 260 261 262 263 263 264 266 268 272 274 274 275 274 271 272
250 250 253 256 257 253 250 249 249 250 254 256 257 262 263 259 260 260 261 260 260 258 256 256 256 256 256 257 259 259 260 262 264 265 264 264 265 269 272 273 274 273 274 273
250 250 248 248 251 254 251 251 252 251 252 257 258 259 262 261 260 260 260 260 258 256 256 255 256 256 259 261 260 259 260 262 264 265 264 263 265 267 269 269 271 273 275 274
252 252 251 250 250 252 254 254 254 253 253 255 258 260 260 262 260 260 260 260 260 259 257 258 258 258 261 262 261 259 261 262 263 264 265 263 264 266 266 267 269 272 274 276
254 255 255 256 255 255 255 255 255 255 256 257 258 260 261 262 260 259 260 261 262 260 259 259 258 259 261 262 262 261 262 261 262 264 264 263 263 264 265 267 270 271 272 275
256 256 256 257 258 258 258 257 256 257 257 257 259 260 262 263 262 261 260 260 260 261 260 259 260 260 259 261 261 262 262 261 261 262 262 263 262 264 265 267 269 272 273 274
257 258 259 259 259 260 261 259 258 258 257 258 259 260 261 262 262 260 260 260 260 261 260 259 260 260 260 261 262 263 264 262 261 261 260 260 261 263 265 268 271 273 272 271
256 258 259 260 261 262 261 261 259 259 260 259 260 260 261 262 262 259 258 259 260 260 260 260 260 260 261 262 262 263 264 263 261 260 260 260 262 264 266 268 270 272 272 270
258 258 259 260 261 262 262 262 262 262 261 259 259 260 261 261 260 260 259 258 258 258 259 260 259 260 261 261 262 263 265 265 262 259 261 263 264 264 264 265 267 269 270 269
260 260 260 261 262 263 261 262 262 262 262 262 261 261 261 261 261 261 261 259 258 257 258 258 258 259 261 262 262 264 266 266 264 262 262 262 262 262 264 265 266 267 268 269
261 262 262 262 262 261 263 263 261 262 263 263 263 263 263 262 261 262 261 259 257 256 256 257 258 260 262 263 263 265 266 266 265 264 263 263 263 263 263 265 266 267 269 270
260 261 262 262 261 262 263 263 263 263 262 262 263 263 263 262 261 262 261 258 255 255 256 257 259 261 262 263 264 265 266 266 266 264 264 265 264 263 264 265 266 268 269 271
262 261 261 261 261 261 261 262 262 262 262 262 262 262 261 260 260 260 260 257 256 256 257 258 259 261 262 262 264 265 267 267 267 265 264 264 263 263 264 266 268 270 272 271
264 264 263 262 261 261 261 261 262 262 261 261 260 259 259 259 258 259 258 257 257 257 257 259 260 261 262 263 264 265 266 266 265 264 264 264 265 264 265 267 268 269 272 273
264 263 262 262 262 262 262 261 260 260 259 259 259 258 258 258 257 257 257 256 257 257 258 259 260 261 262 263 264 265 265 264 264 264 265 265 265 267 267 269 269 270 271 272
Height
5897 5900 5901 5903 5904 5905 5906 5908 5909 5909 5909 5910 5911 5912 5912 5912 5912 5911 5910 5909 5909 5909 5909 5908 5908 5907 5906 5906 5905 5904 5904 5904 5904 5904 5903 5904 5904 5904 5904 5904 5904 5904 5904 5904
5895 5896 5898 5899 5900 5901 5903 5904 5905 5906 5906 5907 5908 5909 5910 5910 5910 5910 5909 5909 5908 5909 5909 5908 5908 5907 5907 5906 5905 5905 5905 5904 5904 5904 5904 5904 5904 5904 5904 5904 5904 5904 5904 5904
5891 5894 5894 5895 5896 5898 5900 5901 5902 5903 5903 5904 5906 5907 5907 5908 5908 5908 5908 5908 5908 5908 5908 5908 5908 5907 5907 5906 5906 5905 5905 5905 5904 5904 5904 5904 5904 5904 5904 5904 5903 5903 5903 5903
5887 5889 5890 5891 5893 5894 5896 5897 5897 5899 5900 5902 5903 5904 5905 5905 5905 5906 5906 5906 5906 5907 5907 5907 5907 5907 5906 5906 5906 5905 5905 5905 5904 5904 5904 5904 5904 5904 5904 5903 5903 5903 5903 5902
5884 5885 5886 5888 5890 5890 5892 5893 5894 5895 5896 5898 5899 5901 5903 5902 5902 5903 5903 5904 5904 5904 5905 5905 5905 5905 5905 5905 5904 5904 5904 5904 5903 5903 5903 5903 5903 5903 5903 5902 5902 5902 5902 5901
5880 5881 5882 5884 5885 5886 5888 5889 5890 5891 5893 5894 5896 5897 5898 5899 5899 5900 5900 5901 5901 5902 5902 5902 5903 5903 5903 5903 5903 5902 5902 5902 5902 5902 5902 5902 5902 5902 5901 5901 5900 5900 5900 5900
5876 5877 5878 5880 5881 5882 5884 5886 5888 5889 5890 5891 5891 5891 5894 5894 5895 5896 5897 5897 5898 5898 5899 5899 5899 5900 5900 5900 5900 5900 5900 5900 5899 5899 5899 5899 5899 5899 5899 5899 5898 5898 5898 5897
5873 5874 5874 5875 5877 5878 5879 5883 5885 5887 5888 5888 5886 5886 5889 5889 5890 5891 5892 5893 5894 5894 5895 5895 5896 5896 5897 5897 5897 5897 5897 5897 5897 5897 5897 5896 5896 5897 5896 5896 5896 5895 5894 5894
5868 5869 5870 5870 5872 5874 5875 5877 5880 5881 5882 5883 5883 5883 5883 5884 5885 5887 5888 5888 5889 5890 5890 5891 5891 5892 5892 5893 5893 5893 5893 5894 5894 5894 5894 5893 5893 5893 5893 5893 5892 5891 5891 5890
5862 5864 5865 5865 5867 5868 5870 5872 5874 5875 5876 5878 5879 5879 5880 5880 5881 5882 5883 5883 5884 5884 5885 5886 5886 5887 5888 5888 5889 5889 5889 5890 5890 5890 5889 5890 5889 5889 5889 5889 5888 5887 5887 5886
5856 5858 5859 5860 5861 5863 5865 5866 5867 5869 5871 5873 5875 5877 5874 5875 5876 5877 5877 5878 5878 5878 5879 5880 5881 5881 5882 5883 5883 5884 5885 5885 5885 5885 5885 5885 5885 5885 5884 5884 5883 5882 5882 5882
5850 5852 5853 5854 5855 5856 5858 5860 5862 5864 5864 5865 5867 5872 5868 5868 5869 5870 5871 5871 5871 5872 5873 5874 5875 5875 5876 5877 5878 5878 5879 5879 5880 5880 5880 5880 5880 5879 5879 5878 5878 5877 5876 5876
5843 5845 5847 5849 5851 5850 5851 5852 5854 5857 5858 5858 5861 5865 5861 5861 5862 5863 5864 5864 5865 5866 5867 5867 5868 5869 5870 5871 5871 5872 5872 5873 5873 5873 5873 5874 5874 5873 5873 5872 5872 5871 5871 5870
5836 5837 5841 5844 5844 5843 5844 5845 5847 5849 5851 5852 5853 5855 5855 5854 5855 5856 5857 5857 5858 5859 5860 5861 5861 5862 5863 5863 5863 5864 5865 5865 5866 5866 5866 5867 5867 5866 5866 5866 5865 5864 5864 5864
5828 5830 5831 5833 5834 5835 5836 5838 5839 5840 5842 5844 5845 5846 5846 5846 5847 5848 5849 5850 5851 5851 5852 5853 5854 5854 5855 5855 5855 5856 5857 5857 5858 5858 5859 5859 5859 5859 5859 5859 5858 5858 5858 5857
5819 5821 5822 5824 5825 5826 5828 5829 5830 5832 5833 5835 5836 5837 5837 5837 5838 5840 5841 5842 5843 5843 5844 5845 5845 5846 5847 5847 5847 5848 5848 5848 5849 5849 5850 5850 5851 5851 5851 5851 5850 5850 5850 5849
5811 5813 5814 5816 5817 5817 5819 5821 5822 5823 5824 5826 5827 5829 5828 5829 5830 5831 5832 5833 5834 5835 5836 5836 5837 5837 5838 5838 5838 5839 5839 5839 5840 5840 5841 5841 5842 5842 5842 5842 5842 5842 5841 5841
5803 5804 5805 5807 5808 5808 5812 5811 5812 5813 5814 5816 5817 5818 5819 5820 5820 5821 5822 5824 5825 5826 5826 5827 5828 5828 5829 5829 5829 5829 5830 5830 5830 5831 5831 5832 5833 5833 5833 5833 5833 5833 5832 5832
5793 5794 5795 5797 5797 5798 5801 5801 5802 5803 5804 5806 5807 5808 5809 5810 5811 5811 5812 5814 5815 5816 5817 5818 5818 5819 5819 5820 5820 5820 5820 5820 5820 5821 5821 5822 5823 5823 5824 5824 5824 5824 5824 5823
5783 5784 5786 5786 5787 5789 5791 5790 5791 5793 5793 5795 5796 5797 5799 5799 5801 5801 5802 5803 5805 5806 5807 5808 5809 5809 5810 5810 5811 5811 5811 5811 5811 5811 5812 5813 5813 5814 5814 5814 5815 5814 5814 5814
5772 5773 5774 5775 5775 5777 5778 5779 5781 5783 5784 5784 5785 5786 5788 5789 5790 5791 5792 5793 5794 5796 5797 5798 5799 5799 5800 5801 5801 5801 5801 5801 5801 5801 5802 5803 5803 5804 5804 5804 5804 5804 5804 5803
5761 5762 5763 5764 5765 5768 5766 5768 5770 5770 5771 5773 5774 5775 5777 5777 5778 5780 5781 5783 5784 5785 5786 5787 5788 5789 5790 5790 5790 5791 5791 5791 5791 5792 5792 5793 5793 5793 5793 5793 5793 5793 5793 5793
5750 5752 5752 5754 5755 5754 5755 5756 5757 5758 5760 5761 5763 5764 5765 5767 5768 5769 5770 5772 5774 5775 5776 5777 5778 5779 5779 5779 5780 5780 5780 5780 5780 5781 5781 5782 5782 5782 5782 5783 5782 5782 5782 5781
5738 5740 5740 5741 5742 5742 5743 5744 5745 5746 5748 5750 5751 5753 5754 5755 5757 5758 5760 5761 5763 5764 5765 5766 5767 5768 5768 5769 5768 5769 5769 5769 5769 5769 5770 5770 5771 5771 5771 5771 5771 5771 5771 5770
5727 5727 5728 5729 5730 5730 5731 5732 5734 5735 5736 5738 5740 5741 5742 5744 5746 5747 5749 5750 5752 5753 5754 5755 5756 5756 5757 5757 5757 5758 5758 5757 5758 5758 5759 5759 5759 5759 5760 5760 5760 5759 5759 5759
5715 5715 5716 5717 5718 5719 5720 5721 5722 5723 5725 5727 5728 5730 5731 5732 5734 5736 5738 5739 5740 5741 5742 5743 5744 5745 5746 5746 5746 5747 5746 5746 5747 5747 5747 5748 5748 5748 5748 5748 5748 5748 5747 5747